Location: ?????????
(54.7630°N, 39.4991°E)
Time: 07:08:48
(UTC+00:00)

USA 238 - Pass Details

Date: 14 April 2026
Orbit: 883 x 1328 km, 63.4° (Epoch: 10 January)

Event Time Altitude Azimuth Distance (km) Brightness Sun altitude
Rises 17:17:33 0° 308° (NW) 3,871 8.8 -7.9°
Reaches altitude 10° 17:20:05 10° 309° (NW) 2,975 7.7 -8.3°
Maximum altitude 17:27:17 86° 39° (NE) 1,206 4.0 -9.1°
Enters shadow 17:34:48 12° 129° (SE) 3,114 5.5 -10.1°
